Skip Page Navigation
NASA JPL Caltech
NASA Logo - Jet Propulsion Laboratory + View the NASA Portal
+ Center for Near-Earth Object Studies
JPL Home Earth Solar System Stars & Galaxies Technology
JPL Solar System Dynamics
BODIES ORBITS EPHEMERIDES TOOLS PHYSICAL DATA DISCOVERY FAQ SITE MAP
JPL Small-Body Database Browser
Search: [ help ]  
11559 (1993 FS23)
Classification: Main-belt Asteroid          SPK-ID: 2011559
Ephemeris | Orbit Diagram | Orbital Elements | Mission Design | Physical Parameters | Discovery Circumstances | Close-Approach Data ]

[ hide orbit diagram ]

For accurate long-term ephemerides, please instead use our Horizons system.This orbit viewer was implemented using two-body methods, and hence should not be used for determining accurate long-term trajectories (over several years or decades) or planetary encounter circumstances.


[ revert to old Java-based viewer ]

Orbital Elements at Epoch 2459000.5 (2020-May-31.0) TDB
Reference: JPL 26 (heliocentric ecliptic J2000)
 Element Value Uncertainty (1-sigma)   Units 
e .0863830421228856 5.8371e-08  
a 2.790013606330196 1.3517e-08 au
q 2.549003743451151 1.607e-07 au
i 2.310228894803929 5.4587e-06 deg
node 329.45440163 9.3059e-05 deg
peri 20.13822587569048 9.5451e-05 deg
M 149.251212109169 2.108e-05 deg
tp 2458294.794869456786
(2018-Jun-25.29486946)
9.9039e-05 TDB
period 1702.189505903181
4.66
1.237e-05
3.387e-08
d
yr
n .2114923154863325 1.537e-09 deg/d
Q 3.031023469209241 1.4685e-08 au
  Orbit Determination Parameters
   # obs. used (total)      1328  
   data-arc span      10783 days (29.52 yr)  
   first obs. used      1990-10-11  
   last obs. used      2020-04-19  
   planetary ephem.      DE431  
   SB-pert. ephem.      SB431-N16  
   condition code      0  
   norm. resid. RMS      .50477  
   source      ORB  
   producer      Otto Matic  
   solution date      2020-May-20 03:34:04  

Additional Information
 Earth MOID = 1.54268 au 
 Jupiter MOID = 2.3272 au 
 T_jup = 3.323 
[ show covariance matrix ]

Ephemeris | Orbit Diagram | Orbital Elements | Mission Design | Physical Parameters | Discovery Circumstances | Close-Approach Data ]

Physical Parameter Table
Parameter Symbol Value Units Sigma Reference Notes
absolute magnitude H 14.6   n/a MPO332928  
diameter diameter 4.901 km 0.080 urn:nasa:pds:neowise_diameters_albedos::2.0[mainbelt] (http://adsabs.harvard.edu/abs/2011ApJ...741...68M)  
geometric albedo albedo 0.106   0.009 urn:nasa:pds:neowise_diameters_albedos::2.0[mainbelt] (http://adsabs.harvard.edu/abs/2011ApJ...741...68M)  

11559 (1993 FS23)          Discovered 1993-Mar-21 by UESAC at La Silla
Reference: 19990928/Numbers.arcLast Updated: 2004-04-19

[ show close-approach data ]
Alternate Designations
 1993 FS23 = 1990 TO11 
Ephemeris | Orbit Diagram | Orbital Elements | Mission Design | Physical Parameters | Discovery Circumstances | Close-Approach Data ]
ABOUT SSD CREDITS/AWARDS PRIVACY/COPYRIGHT GLOSSARY LINKS
FirstGov 2020-Aug-07 10:49 UT
(server date/time)  
NASA Home Page
Site Manager:   Ryan S. Park
Webmaster  Alan B. Chamberlin